Weather History for Dickinson, ND

Change the Weather History Date:

Wednesday, September 19, 2012

  Actual Average Record
Temperature  
Mean Temperature 56 °F 56 °F  
Max Temperature 67 °F 69 °F 89 °F (2008)
Min Temperature 45 °F 42 °F 17 °F (1918)
Degree Days  
Heating Degree Days 9 10  
Month to date heating degree days 107 130  
Since 1 July heating degree days 147 216  
Cooling Degree Days 0 1  
Month to date cooling degree days 33 30  
Year to date cooling degree days 587 416  
Growing Degree Days 7 (Base 50)    
Moisture  
Dew Point 30 °F    
Average Humidity 45    
Maximum Humidity 70    
Minimum Humidity 20    
Precipitation  
Precipitation 0.00 in 0.05 in 0.71 in (1998)
Month to date precipitation 0.16 0.93  
Year to date precipitation 8.58 13.22  
Sea Level Pressure  
Sea Level Pressure 29.98 in    
Wind  
Wind Speed 14 mph (NW)    
Max Wind Speed 14 mph    
Max Gust Speed 18 mph    
Visibility 10 miles    
Events      
T = Trace of Precipitation, MM = Missing Value Source: NWS Daily Summary

Daily Weather History Graph

Daily Weather History Graph

Search for Another Location

Airport:

Trip Planner

Search our weather history database for the weather conditions in past years. The results will help you decide how hot, cold, wet, or windy it might be!

Date:

Astronomy

Sep. 19, 2012 Rise Set
Actual Time 6:34 AM MDT 6:53 PM MDT
Civil Twilight 6:04 AM MDT 7:24 PM MDT
Nautical Twilight 5:28 AM MDT 7:59 PM MDT
Astronomical Twilight 4:51 AM MDT 8:36 PM MDT
Moon 11:07 AM MDT (9/19) 8:44 PM MDT (9/19)
Length of Visible Light 13h 19m
Length of Day
12h 18m
Waxing Crescent, 17% of the Moon is Illuminated
Sep 19
Waxing Crescent
Sep 22
First Quarter
Sep 29
Full
Oct 8
Last Quarter
Oct 15
New

Hourly Weather History & Observations

Time (MDT) Temp. Dew Point Humidity Pressure Visibility Wind Dir Wind Speed Gust Speed Precip Events Conditions
12:56 AM 57.0 °F 33.1 °F 40% 29.77 in 10.0 mi NW 6.9 mph - N/A   Clear
1:56 AM 53.1 °F 33.1 °F 47% 29.79 in 10.0 mi NW 6.9 mph - N/A   Clear
2:56 AM 57.0 °F 35.1 °F 44% 29.80 in 10.0 mi NNW 11.5 mph - N/A   Clear
3:56 AM 51.1 °F 35.1 °F 54% 29.84 in 10.0 mi WNW 9.2 mph - N/A   Clear
4:56 AM 52.0 °F 37.0 °F 57% 29.88 in 10.0 mi NW 16.1 mph - N/A   Clear
5:56 AM 48.9 °F 36.0 °F 61% 29.92 in 10.0 mi WNW 10.4 mph - N/A   Clear
7:56 AM 50.0 °F 35.1 °F 57% 30.00 in 10.0 mi WNW 13.8 mph - N/A   Clear
8:56 AM 55.0 °F 36.0 °F 49% 30.02 in 10.0 mi NW 24.2 mph 34.5 mph N/A   Clear
9:56 AM 57.9 °F 37.0 °F 46% 30.03 in 10.0 mi NW 25.3 mph 32.2 mph N/A   Clear
10:56 AM 61.0 °F 34.0 °F 36% 30.03 in 10.0 mi NW 29.9 mph 39.1 mph N/A   Clear
11:56 AM 63.0 °F 30.9 °F 30% 30.04 in 10.0 mi NW 24.2 mph 36.8 mph N/A   Clear
12:56 PM 64.0 °F 28.9 °F 27% 30.04 in 10.0 mi NW 20.7 mph 33.4 mph N/A   Clear
2:56 PM 66.0 °F 25.0 °F 21% 30.01 in 10.0 mi NNW 20.7 mph 29.9 mph N/A   Clear
3:56 PM 63.0 °F 24.1 °F 23% 30.03 in 10.0 mi NW 19.6 mph 29.9 mph N/A   Clear
4:56 PM 63.0 °F 24.1 °F 23% 30.02 in 10.0 mi NNW 20.7 mph 28.8 mph N/A   Clear
5:56 PM 62.1 °F 24.1 °F 23% 30.03 in 10.0 mi NNW 13.8 mph 19.6 mph N/A   Clear
6:56 PM 57.9 °F 23.0 °F 26% 30.04 in 10.0 mi North 9.2 mph - N/A   Clear
7:56 PM 55.9 °F 23.0 °F 28% 30.04 in 10.0 mi North 6.9 mph - N/A   Clear
8:56 PM 54.0 °F 24.1 °F 31% 30.04 in 10.0 mi NNW 4.6 mph - N/A   Clear
9:56 PM 53.1 °F 25.0 °F 34% 30.05 in 10.0 mi NW 3.5 mph - N/A   Partly Cloudy
10:56 PM 51.1 °F 28.0 °F 41% 30.05 in 10.0 mi Calm Calm - N/A   Scattered Clouds
11:56 PM 50.0 °F 28.0 °F 43% 30.05 in 10.0 mi West 4.6 mph - N/A   Partly Cloudy